Zurück zum Katalog

STARLINK-1193

AktivKommunikationVLEO
NORAD 45100·PAYLOAD·🇺🇸 United States

Gestartet Jan 29, 2020 von Cape Canaveral Space Force Station

Loading…

Nächste Überflüge (nächste 24 Stunden)

TLE

AktuellSource: CelesTrak SupGP

Epoche: Sep 14, 2026, 22:03 UTC

1 45100C 20006BJ  26257.91923611  .00068298  00000+0  36046-3 0  2573
2 45100  53.0412  17.2152 0004421 296.7021  24.3778 15.79886331    16

Verfolge STARLINK-1193 in Echtzeit mit AllMySat

Download on the App Store